{"data":{"norad_id":46277,"epoch":"2026-09-20T04:18:11.268576Z","epoch_age_seconds":53333,"freshness":"FRESH","line1":"1 46277U 20061F   26263.17929709  .00007319  00000+0  15036-3 0  9995","line2":"2 46277  97.1819 324.2333 0002428  81.7305 278.4220 15.46289892336655","mean_motion":15.46289892,"eccentricity":0.0002428,"inclination_deg":97.1819,"raan_deg":324.2333,"arg_perigee_deg":81.7305,"mean_anomaly_deg":278.422,"bstar":0.00015036,"rev_number":33665,"period_min":93.12613420356,"perigee_km":425.93818407334,"apogee_km":429.24304540306,"semimajor_km":6805.7276147382,"source":"CELESTRAK","updated_at":"2026-09-20T09:00:33.976141Z"}}